STARLINK-3304 (50161 NORAD) Tracking and Keplerian Element Data

This shows tracking and keplerian element data for the satellite.

Feedback or suggestion? Click here.




ElementValue
Catalog50161
NameSTARLINK-3304
Epoch Orbit130
Epoch Day140.58334491
Epoch Year2022
RAAN15.0758
Inclination53.2148
Eccentricity0.0001945
Argument of Perigee44.0976
Mean Anonmoly307.4263
Mean Motion15.0882096
Decay Rate0.00035805
L11 50161U 21125F 22140.58334491 .00035805 00000+0 22575-2 0 9993
L22 50161 53.2148 15.0758 0001945 44.0976 307.4263 15.08820960 1301

Live tracking and technical data element details for STARLINK-3304 (NORAD 50161). STARLINK-3304 can be tracked NOW for your location showing map with azimuth and elevation plus other details from your city location.

Track the satellite on the map from your city or location and see movement details for azimuth, elevation, latitude, longitude, range, height, and movement on the map or in text.







IsCatalogInMostPopularTable: catalog: 50161, numindb: 23
Update: records affected: 1



GetName: 50161 STARLINK-3304

Hit Count: updated at: Mon, 23 May 2022 20:08:04 GMT